www.pogodaiklimat.ru

Погода и климат >> Архив погоды >> Россия >> Псковская область >> Сущево


ПОГОДА в Сущево

  • Прогноз погоды в Сущево
  • Монитор погоды в Сущево

АРХИВ ПОГОДЫ в Сущево

Время (UTC), дата Ветер
(напр.,м/с)
 
Видим.   Явления Облачность Т
(С)
Тd
(С)
f
(%)
Тe
(С)
Тes
(С)
Комфортность P
(гПа)
Po
(гПа)
Тmin
(С)
Tmax
(С)
R
(мм)
R24
(мм)
S
(см)
06 15.09 ЮЗ 1 20 км 10/10 600 м
[Cb calv]
+8.0 +7.1 94 +7 +7 1015.4 1002.1 +4.7
09 15.09 ЮЗ 3 н/о н/о +10.0 +8.5 90 +8 +8 1011.5 998.4
12 15.09 ЮЗ 3 н/о н/о +10.0 +8.6 91 +8 +8 1006.8 993.7
15 15.09 ЮЗ 3
{12}
н/о н/о +9.5 +8.4 93 +7 +7 1002.4 989.4 6
18 15.09 ЮЗ 3 10 км слаб. ливневой дождь 10/10 600 м
[Cb calv]
+10.0 +8.8 92 +8 +8 999.6 986.6 +10.3 7
21 15.09 СЗ 3 н/о н/о +9.8 +8.6 92 +7 +7 998.0 985.1
00 16.09 З 2 н/о н/о +10.2 +9.0 92 +9 +9 997.0 984.1
03 16.09 З 2 н/о н/о +9.9 +8.5 91 +8 +8 996.2 983.2 +9.4 4
06 16.09 З 2 20 км 10/9 600 м
[Cb calv Ac trans]
+10.9 +8.4 85 +10 +10 996.1 983.2 +9.4 4
09 16.09 З 2 н/о н/о +11.3 +10.0 92 +10 +10 996.3 983.4
12 16.09 З 2
{12}
н/о н/о +13.5 +8.3 71 +13 +13 996.1 983.3
15 16.09 СЗ 3
{12}
н/о н/о +12.5 +8.1 75 +11 +11 996.4 983.6 0.9
18 16.09 СЗ 2 20 км 10/10 600 м
[Cb calv]
+10.5 +7.6 82 +9 +9 997.3 984.4 +14.6 0.9
21 16.09 З 2 н/о н/о +8.9 +7.5 91 +7 +7 997.5 984.5
00 17.09 З 1 н/о н/о +8.3 +6.9 91 +7 +7 997.1 984.1
03 17.09 СЗ 2 н/о н/о +8.3 +6.9 91 +6 +6 997.0 984.0 +8.2 0.2
06 17.09 СЗ 2 20 км 10/10 600 м
[Cb calv]
+8.5 +7.5 93 +7 +7 997.4 984.4 +7.9 1
09 17.09 СЗ 3 н/о н/о +9.9 +8.5 91 +8 +8 998.1 985.2
12 17.09 СЗ 1 н/о н/о +11.8 +9.1 84 +12 +12 998.1 985.2
15 17.09 ЮЗ 2 н/о н/о +10.2 +7.1 81 +9 +9 998.1 985.2 4
18 17.09 З 1 20 км 10/10 600 м
[Cb calv]
+8.4 +8.0 97 +7 +7 998.0 985.0 +13.7 4
21 17.09 штиль 0 н/о н/о +6.8 +6.4 97 +6 +6 997.4 984.3
00 18.09 штиль 0 н/о н/о +3.9 +3.7 99 +3 +3 997.0 983.8
03 18.09 штиль 0 н/о н/о +1.2 +1.3 100 -0 -0 997.2 983.8 +1.1 0.8
06 18.09 штиль 0 4000 м дымка 10/0
[As trans]
+5.3 +5.2 99 +4 +5 998.1 984.9 +0.9 0.6
09 18.09 ЮЗ 1 н/о н/о +11.6 +7.8 77 +12 +12 999.4 986.5
12 18.09 СЗ 2 н/о н/о +12.2 +5.2 62 +11 +11 1000.6 987.7
15 18.09 С 1 н/о н/о +10.4 +6.2 75 +10 +10 1002.8 989.8
18 18.09 СЗ 1 20 км ясно +5.4 +4.9 97 +4 +4 1005.3 992.0 +13.9
03 19.09 штиль 0 н/о н/о +5.1 +4.8 98 +4 +4 1009.9 996.6 +5.1
06 19.09 СЗ 1 20 км 8/0
[Ac trans]
+6.2 +5.6 96 +5 +6 1011.6 998.3 +4.9
09 19.09 С 1 н/о н/о +9.1 +3.8 69 +9 +9 1012.9 999.7
12 19.09 С 1 н/о н/о +7.4 +5.6 88 +6 +6 1013.8 1000.5
15 19.09 С 1 н/о н/о +7.2 +5.2 87 +6 +6 1014.4 1001.1 0.7
18 19.09 штиль 0 20 км ясно +3.1 +2.8 98 +2 +2 1015.4 1001.8 +9.4 1
21 19.09 штиль 0 н/о н/о +1.4 +1.4 100 0 0 1015.5 1001.9
00 20.09 штиль 0 н/о н/о -0.4 -0.4 100 -2 -2 1015.6 1001.9
03 20.09 штиль 0 н/о н/о -0.7 -0.6 100 -2 -2 1015.1 1001.4 -0.9 0.6
06 20.09 СЗ 1 20 км 10/10 600 м
[Cb calv]
+3.1 +3.1 100 +1 +1 1015.5 1002.0 -0.9
09 20.09 СЗ 1 н/о н/о +6.6 +5.1 90 +5 +5 1016.3 1003.0
12 20.09 С 1 н/о н/о +8.9 +4.6 74 +8 +8 1016.6 1003.4
15 20.09 СЗ 1 н/о н/о +7.0 +2.2 71 +6 +6 1016.9 1003.6 2
18 20.09 штиль 0 20 км ясно +2.3 +1.5 94 +1 +1 1018.3 1004.7 +9.7 2
21 20.09 штиль 0 н/о н/о +0.8 +0.5 98 -1 -1 1018.2 1004.5
00 21.09 штиль 0 н/о н/о +1.8 +1.1 95 +1 +1 1017.3 1003.7
03 21.09 ЮЗ 1 н/о н/о +2.5 +1.8 95 +1 +1 1015.7 1002.2 +0.4
06 21.09 ЮЗ 1 20 км 10/0
[As op]
+5.3 +4.0 91 +4 +4 1013.8 1000.3 +0.4
09 21.09 Ю 2 н/о н/о +6.4 +5.2 92 +4 +4 1010.6 997.3
12 21.09 ЮЗ 1 н/о н/о +7.9 +7.5 97 +7 +7 1007.9 994.7
15 21.09 СЗ 2 н/о н/о +9.8 +9.2 96 +8 +8 1006.4 993.3 5
18 21.09 СЗ 1 20 км 10/10 600 м
[Cb calv]
+8.7 +8.1 96 +8 +8 1006.1 993.0 +9.8 5
21 21.09 СЗ 2 н/о н/о +8.5 +7.7 95 +6 +6 1005.9 992.8
00 22.09 СЗ 1 н/о н/о +7.2 +6.8 97 +6 +6 1006.8 993.6
03 22.09 СЗ 1 н/о н/о +6.9 +6.5 97 +6 +6 1007.3 994.0 +6.8 0.1

 

Местоположение метеостанции Сущево (Псковская область, Россия): широта 57.00 долгота 29.90 высота над уровнем моря 108 м.

В архиве по умолчанию представлена погода в Сущево за последнюю неделю. Архивные данные за месяц целиком и за предыдущие месяцы, начиная с января 2011 года, Вы можете получить, выбрав интересующий диапазон дат из раскрывающегося списка и нажав кнопку "Ввод!".


*Определитесь, кто Вы:
робот инопланетянин человек

Внимание! Время в таблицах - всемирное. Для получения местного времени необходимо прибавить поправку, которая равна 3 ч.

Смотрите также архив погоды в соседних городах и на ближайших метеорологических станциях:

Погода в Пушкинских Горах (Псковская область, Россия) (61 км)
Погода в Опочке (Псковская область, Россия) (78 км)
Погода в Холме (Новгородская область, Россия) (79 км)
Погода в Великих Луках (Псковская область, Россия) (85 км)
Погода в Дно (Псковская область, Россия) (91 км)
Погода в Торопце (Тверская область, Россия) (120 км)
Погода в Езерище (Витебская область, Беларусь) (129 км)
Погода в Пскове (Псковская область, Россия) (131 км)
Погода в Старой Руссе (Новгородская область, Россия) (142 км)
Погода в Стругах-Красных (Псковская область, Россия) (149 км)

Пояснения к столбцам:

Ветер - указаны скорость ветра в м/с - средняя за 10 мин, порывы в срок и между сроками (в фигурных скобках) и направление, откуда дует ветер: С - северный, СВ - северо-восточный, В - восточный, ЮВ - юго-восточный, Ю - южный, ЮЗ - юго-западный, З - западный, СЗ - северо-западный.
Видимость - горизонтальная дальность видимости в метрах или километрах. При видимости от 1 до 10 км при отсутствии осадков обычно наблюдается дымка, при ухудшении видимости до 1 км и менее - туман. В сухую погоду видимость может ухудшаться дымом, пылью или мглою.
Явления - указаны атмосферные явления, наблюдавшиеся в срок или в последний час перед сроком; фигурными скобками обозначены явления, наблюдавшиеся между сроками (за 1-3 часа до срока); квадратными скобками обозначены град или гололедные отложения с указанием их диаметра в мм.
Облачность - указаны через наклонную черту общая и нижняя облачность в баллах и высота нижней границы облаков в метрах; квадратными скобками обозначены формы облаков: Ci - перистые, Cs - перисто-слоистые, Cc - перисто-кучевые, Ac - высококучевые, As - высокослоистые, Sc - слоисто-кучевые, Ns - слоисто-дождевые, Cu - кучевые, Cb - кучево-дождевые. Подробнее классификацию облаков см. в Атласе облаков (PDF).
T - Температура воздуха - температура, измеренная на высоте 2 м над землей.
Td - Температура точки росы - температура, при понижении до которой содержащийся в воздухе водяной пар достигнет насыщения.
f - Относительная влажность воздуха - влажноcть воздуха, измеренная на высоте 2 м над землей.
Te - Эффективная температура - температура, которую ощущает одетый по сезону человек в тени. Характеристика душности погоды. При расчете учитывается влияние влажности воздуха и скорости ветра на теплоощущения человека.
Tes - Эффективная температура на солнце - температура, которую ощущает человек, с поправкой на солнечный нагрев. Характеристика знойности погоды. Зависит от высоты солнца над горизонтом, облачности и скорости ветра. Ночью, в пасмурную погоду, а также при ветре 12 м/с и более поправка равна нулю.
P - Атмосферное давление - приведенное к уровню моря атмосферное давление.
Po - Атмосферное давление - измеренное на уровне метеостанции атмосферное давление.
Tmin - Минимальная температура - минимум температуры воздуха на высоте 2 м над землей.
Tmax - Максимальная температура - максимум температуры воздуха на высоте 2 м над землей.
R - Количество осадков - Количество выпавших осадков за период времени, мм. При наведении курсора мыши на число - период времени, за который выпало указанное количество осадков.
R24 - Количество осадков - Количество выпавших осадков за 24 часа, мм.
S - Снежный покров - Высота снежного покрова, см. При наведении курсора мыши на число - состояние снежного покрова и степень покрытия местности в баллах.